Latrobe, PA

5:47 PM EST on December 06, 2019 (GMT -0500)
Arnold Palmer Regional

Weather History for KLBE - November, 2019

Change the Weather History Date:

Thursday, November 14, 2019

  Actual Average Record
Temperature  
Mean Temperature 32 °F -  
Max Temperature 42 °F 48 °F 71 °F (2011)
Min Temperature 23 °F 33 °F 17 °F (1996)
Degree Days  
Heating Degree Days 32    
Moisture  
Dew Point 21 °F    
Average Humidity 71    
Maximum Humidity 86    
Minimum Humidity 42    
Precipitation  
Precipitation 0.00 in - - ()
Sea Level Pressure  
Sea Level Pressure 30.23 in    
Wind  
Wind Speed 3 mph (SSW)    
Max Wind Speed 21 mph    
Max Gust Speed 21 mph    
Visibility 10 miles    
Events      
Averages and records for this station are not official NWS values.
T = Trace of Precipitation, MM = Missing Value Source: NWS Daily Summary

Daily Weather History Graph

Daily Weather History Graph

Search for Another Location

Airport or City:

Astronomy

Nov. 14, 2019 Rise Set
Actual Time 7:01 AM EST 5:01 PM EST
Civil Twilight 6:32 AM EST 5:30 PM EST
Nautical Twilight 6:00 AM EST 6:03 PM EST
Astronomical Twilight 5:27 AM EST 6:35 PM EST
Moon 6:45 PM EST (11/14) 8:55 AM EST (11/14)
Length of Visible Light 10h 57m
Length of Day
9h 59m
Waning Gibbous, 95% of the Moon is Illuminated
Nov 14
Waning Gibbous
Nov 19
Last Quarter
Nov 26
New
Dec 4
First Quarter
Dec 12
Full

Hourly Weather History & Observations

Time (EST) Temp. Windchill Dew Point Humidity Pressure Visibility Wind Dir Wind Speed Gust Speed Precip Events Conditions
12:15 AM 24.8 °F - 21.2 °F 86% 30.21 in 10.0 mi Calm Calm - N/A   Clear
12:35 AM 24.8 °F - 21.2 °F 86% 30.21 in 10.0 mi Calm Calm - N/A   Clear
12:55 AM 24.8 °F - 19.4 °F 80% 30.20 in 10.0 mi Calm Calm - N/A   Clear
1:15 AM 24.8 °F - 21.2 °F 86% 30.19 in 10.0 mi Calm Calm - N/A   Clear
1:35 AM 24.8 °F - 19.4 °F 80% 30.18 in 10.0 mi Calm Calm - N/A   Clear
1:55 AM 24.8 °F - 21.2 °F 86% 30.19 in 10.0 mi Calm Calm - N/A   Clear
2:35 AM 24.8 °F - 21.2 °F 86% 30.19 in 10.0 mi Calm Calm - N/A   Clear
2:55 AM 24.8 °F - 21.2 °F 86% 30.20 in 10.0 mi Calm Calm - N/A   Clear
3:15 AM 24.8 °F - 21.2 °F 86% 30.20 in 10.0 mi Calm Calm - N/A   Clear
3:35 AM 24.8 °F - 19.4 °F 80% 30.20 in 10.0 mi Calm Calm - N/A   Clear
3:55 AM 24.8 °F - 21.2 °F 86% 30.21 in 10.0 mi Calm Calm - N/A   Clear
4:35 AM 24.8 °F - 19.4 °F 80% 30.21 in 10.0 mi Calm Calm - N/A   Clear
4:55 AM 24.8 °F - 19.4 °F 80% 30.22 in 10.0 mi Calm Calm - N/A   Clear
5:15 AM 24.8 °F - 19.4 °F 80% 30.23 in 10.0 mi Calm Calm - N/A   Clear
5:35 AM 23.0 °F - 19.4 °F 86% 30.23 in 10.0 mi Calm Calm - N/A   Clear
5:55 AM 28.4 °F 22.2 °F 17.6 °F 64% 30.23 in 10.0 mi South 5.8 mph - N/A   Clear
6:51 AM 30.2 °F 22.6 °F 15.8 °F 55% 30.23 in 10.0 mi SSW 8.1 mph - N/A   Clear
8:51 AM 33.8 °F 22.2 °F 19.4 °F 56% 30.25 in 10.0 mi SSW 20.7 mph - N/A   Clear
9:51 AM 35.6 °F 26.6 °F 21.2 °F 56% 30.26 in 10.0 mi SSW 13.8 mph - N/A   Clear
10:51 AM 37.4 °F 29.8 °F 23.0 °F 56% 30.26 in 10.0 mi SSW 11.5 mph - N/A   Clear
1:53 PM 42.8 °F 36.2 °F 23.0 °F 46% 30.21 in 10.0 mi SW 12.7 mph 20.7 mph N/A   Clear
2:53 PM 42.8 °F 35.4 °F 21.2 °F 42% 30.20 in 10.0 mi SW 15.0 mph 20.7 mph N/A   Clear
3:53 PM 42.8 °F 36.6 °F 23.0 °F 46% 30.20 in 10.0 mi SSW 11.5 mph 20.7 mph N/A   Clear
4:50 PM 37.4 °F 29.8 °F 23.0 °F 56% 30.21 in 10.0 mi SW 11.5 mph 20.7 mph N/A   Scattered Clouds
5:50 PM 39.2 °F 30.5 °F 21.2 °F 49% 30.23 in 10.0 mi SSW 16.1 mph - N/A   Clear
7:50 PM 32.0 °F 25.6 °F 23.0 °F 69% 30.25 in 10.0 mi South 6.9 mph - N/A   Scattered Clouds
8:50 PM 28.4 °F 21.2 °F 23.0 °F 80% 30.26 in 10.0 mi South 6.9 mph - N/A   Clear
10:15 PM 32.0 °F - 21.2 °F 64% 30.27 in 10.0 mi Calm Calm - N/A   Clear
10:35 PM 28.4 °F - 21.2 °F 74% 30.27 in 10.0 mi Calm Calm - N/A   Clear
10:55 PM 30.2 °F - 21.2 °F 69% 30.27 in 10.0 mi Calm Calm - N/A   Clear
11:15 PM 30.2 °F - 21.2 °F 69% 30.27 in 10.0 mi Calm Calm - N/A   Clear
11:35 PM 26.6 °F - 21.2 °F 80% 30.26 in 10.0 mi Calm Calm - N/A   Clear
11:55 PM 28.4 °F - 21.2 °F 74% 30.26 in 10.0 mi Calm Calm - N/A   Clear